| time (UTC) | temp F | wind direction | speed MPH | gust MPH | rain 1hr in | rain 24hr in | rain mn in | humidity % | barometer mb |
| 20260506091316 | 76 | 191 | 1.0 | 2.0 | 0.00 | 0.00 | 0.00 | 92 | 1008.1 |
| 20260506090813 | 76 | 191 | 1.0 | 2.0 | 0.00 | 0.00 | 0.00 | 92 | 1008.3 |
| 20260506090310 | 76 | 191 | 1.0 | 2.0 | 0.00 | 0.00 | 0.00 | 92 | 1008.3 |
| 20260506085807 | 76 | 191 | 1.0 | 2.0 | 0.00 | 0.00 | 0.00 | 92 | 1008.4 |
| 20260506085305 | 76 | 191 | 1.0 | 2.0 | 0.00 | 0.00 | 0.00 | 92 | 1008.1 |
| 20260506084800 | 76 | 191 | 1.0 | 2.0 | 0.00 | 0.00 | 0.00 | 92 | 1008.1 |
| 20260506084256 | 76 | 244 | 0.0 | 1.0 | 0.00 | 0.00 | 0.00 | 92 | 1008.4 |
| 20260506083753 | 76 | 309 | 0.0 | 0.0 | 0.00 | 0.00 | 0.00 | 92 | 1008.6 |
| 20260506083251 | 76 | 309 | 0.0 | 0.0 | 0.00 | 0.00 | 0.00 | 92 | 1008.1 |
| 20260506082748 | 76 | 309 | 0.0 | 0.0 | 0.00 | 0.00 | 0.00 | 92 | 1008.3 |
| 20260506082243 | 76 | 309 | 0.0 | 0.0 | 0.00 | 0.00 | 0.00 | 92 | 1008.1 |
| 20260506081741 | 76 | 309 | 0.0 | 0.0 | 0.00 | 0.00 | 0.00 | 92 | 1008.4 |
| 20260506081238 | 76 | 309 | 0.0 | 0.0 | 0.00 | 0.00 | 0.00 | 92 | 1008.2 |
| 20260506080737 | 76 | 186 | 2.0 | 2.0 | 0.00 | 0.00 | 0.00 | 92 | 1008.4 |
| 20260506080233 | 76 | 128 | 1.0 | 1.0 | 0.00 | 0.00 | 0.00 | 92 | 1008.5 |
| 20260506073217 | 76 | 223 | 0.0 | 0.0 | 0.00 | 0.00 | 0.00 | 92 | 1008.6 |
| 20260506072713 | 76 | 209 | 0.0 | 1.0 | 0.00 | 0.00 | 0.00 | 92 | 1008.5 |
| 20260506072211 | 76 | 237 | 0.0 | 1.0 | 0.00 | 0.00 | 0.00 | 92 | 1008.7 |
| 20260506071708 | 77 | 151 | 2.0 | 2.0 | 0.00 | 0.00 | 0.00 | 91 | 1008.6 |
| 20260506071206 | 77 | 217 | 3.0 | 3.0 | 0.00 | 0.00 | 0.00 | 91 | 1008.9 |
| 20260506070703 | 77 | 131 | 0.0 | 1.0 | 0.00 | 0.00 | 0.00 | 91 | 1008.8 |
| 20260506070200 | 77 | 315 | 1.0 | 1.0 | 0.00 | 0.00 | 0.00 | 91 | 1008.9 |
| 20260506062137 | 76 | 173 | 3.0 | 3.0 | 0.00 | 0.00 | 0.00 | 91 | 1009.1 |
| 20260506061633 | 76 | 173 | 3.0 | 3.0 | 0.00 | 0.00 | 0.00 | 91 | 1009.0 |
| 20260506061131 | 76 | 173 | 3.0 | 3.0 | 0.00 | 0.00 | 0.00 | 91 | 1008.7 |
| 20260506060629 | 76 | 151 | 0.0 | 1.0 | 0.00 | 0.00 | 0.00 | 92 | 1008.7 |
| 20260506060126 | 76 | 151 | 0.0 | 1.0 | 0.00 | 0.00 | 0.00 | 92 | 1008.9 |
| 20260506051057 | 77 | 204 | 5.0 | 6.0 | 0.00 | 0.00 | 0.00 | 91 | 1009.1 |
| 20260506050555 | 77 | 204 | 5.0 | 6.0 | 0.00 | 0.00 | 0.00 | 91 | 1009.0 |
| 20260506045046 | 77 | 164 | 1.0 | 3.0 | 0.00 | 0.00 | 0.00 | 90 | 1009.0 |
| 20260506044544 | 77 | 226 | 0.0 | 0.0 | 0.00 | 0.00 | 0.00 | 90 | 1009.0 |
| 20260506044040 | 78 | 195 | 3.0 | 3.0 | 0.00 | 0.00 | 0.00 | 90 | 1009.0 |
| 20260506043537 | 78 | 185 | 3.0 | 5.0 | 0.00 | 0.00 | 0.00 | 90 | 1008.8 |
| 20260506043036 | 78 | 225 | 2.0 | 6.0 | 0.00 | 0.00 | 0.00 | 90 | 1008.8 |
| 20260506042535 | 78 | 194 | 3.0 | 3.0 | 0.00 | 0.00 | 0.00 | 89 | 1008.9 |
| 20260506042032 | 78 | 231 | 1.0 | 3.0 | 0.00 | 0.00 | 0.00 | 89 | 1008.7 |
| 20260506041531 | 78 | 195 | 3.0 | 3.0 | 0.00 | 0.00 | 0.00 | 89 | 1008.9 |
| 20260506041027 | 78 | 170 | 1.0 | 5.0 | 0.00 | 0.00 | 0.00 | 89 | 1008.7 |
| 20260506040525 | 78 | 124 | 1.0 | 2.0 | 0.00 | 0.00 | 0.00 | 89 | 1008.6 |
| 20260506040021 | 78 | 113 | 2.0 | 5.0 | 0.00 | 0.00 | 0.00 | 88 | 1008.4 |
| 20260506035518 | 78 | 171 | 1.0 | 5.0 | 0.00 | 0.00 | 0.00 | 88 | 1008.4 |
| 20260506035014 | 78 | 204 | 0.0 | 1.0 | 0.00 | 0.00 | 0.00 | 88 | 1008.5 |
| 20260506034512 | 78 | 230 | 1.0 | 2.0 | 0.00 | 0.00 | 0.00 | 88 | 1008.2 |
| 20260506034009 | 78 | 132 | 3.0 | 5.0 | 0.00 | 0.00 | 0.00 | 88 | 1008.4 |
| 20260506033506 | 78 | 137 | 2.0 | 2.0 | 0.00 | 0.00 | 0.00 | 88 | 1008.4 |
| 20260506033003 | 78 | 211 | 2.0 | 3.0 | 0.00 | 0.00 | 0.00 | 88 | 1008.2 |
| 20260506032500 | 78 | 143 | 1.0 | 5.0 | 0.00 | 0.00 | 0.00 | 87 | 1008.1 |
| 20260506031956 | 79 | 156 | 2.0 | 5.0 | 0.00 | 0.00 | 0.00 | 87 | 1008.1 |
| 20260506031454 | 79 | 185 | 2.0 | 5.0 | 0.00 | 0.00 | 0.00 | 87 | 1007.9 |
| 20260506030951 | 79 | 208 | 1.0 | 2.0 | 0.00 | 0.00 | 0.00 | 86 | 1007.9 |
| 20260506030449 | 79 | 198 | 1.0 | 3.0 | 0.00 | 0.00 | 0.00 | 86 | 1007.7 |
| 20260506025946 | 79 | 156 | 2.0 | 5.0 | 0.00 | 0.00 | 0.00 | 86 | 1007.8 |
| 20260506025443 | 79 | 196 | 0.0 | 3.0 | 0.00 | 0.00 | 0.00 | 86 | 1007.7 |
| 20260506024939 | 79 | 155 | 2.0 | 5.0 | 0.00 | 0.00 | 0.00 | 86 | 1007.8 |
| 20260506024436 | 79 | 202 | 2.0 | 3.0 | 0.00 | 0.00 | 0.00 | 86 | 1007.5 |
| 20260506023932 | 79 | 181 | 4.0 | 5.0 | 0.00 | 0.00 | 0.00 | 85 | 1007.1 |
| 20260506023429 | 80 | 213 | 3.0 | 5.0 | 0.00 | 0.00 | 0.00 | 85 | 1007.6 |
| 20260506022926 | 80 | 70 | 1.0 | 5.0 | 0.00 | 0.00 | 0.00 | 84 | 1007.1 |
| 20260506022424 | 80 | 134 | 5.0 | 8.0 | 0.00 | 0.00 | 0.00 | 83 | 1006.9 |
| 20260506021922 | 80 | 175 | 2.0 | 7.0 | 0.00 | 0.00 | 0.00 | 83 | 1006.8 |
| 20260506021418 | 80 | 190 | 1.0 | 3.0 | 0.00 | 0.00 | 0.00 | 82 | 1006.8 |
| 20260506020915 | 80 | 216 | 1.0 | 3.0 | 0.00 | 0.00 | 0.00 | 81 | 1006.9 |
| 20260506020413 | 81 | 200 | 1.0 | 3.0 | 0.00 | 0.00 | 0.00 | 81 | 1006.6 |
| 20260506015910 | 81 | 211 | 2.0 | 3.0 | 0.00 | 0.00 | 0.00 | 81 | 1006.8 |
| 20260506015408 | 81 | 190 | 2.0 | 5.0 | 0.00 | 0.00 | 0.00 | 81 | 1006.4 |
| 20260506014904 | 81 | 195 | 1.0 | 3.0 | 0.00 | 0.00 | 0.00 | 80 | 1006.5 |
| 20260506014401 | 81 | 208 | 0.0 | 2.0 | 0.00 | 0.00 | 0.00 | 80 | 1006.5 |
| 20260506013858 | 81 | 172 | 0.0 | 5.0 | 0.00 | 0.00 | 0.00 | 80 | 1006.5 |
| 20260506013356 | 81 | 182 | 3.0 | 3.0 | 0.00 | 0.00 | 0.00 | 80 | 1006.3 |
| 20260506012851 | 82 | 190 | 1.0 | 2.0 | 0.00 | 0.00 | 0.00 | 79 | 1006.4 |
| 20260506012348 | 82 | 202 | 1.0 | 3.0 | 0.00 | 0.00 | 0.00 | 79 | 1006.5 |
| 20260506011846 | 82 | 182 | 1.0 | 1.0 | 0.00 | 0.00 | 0.00 | 78 | 1006.6 |
| 20260506011343 | 82 | 191 | 1.0 | 1.0 | 0.00 | 0.00 | 0.00 | 78 | 1006.7 |
| 20260506010840 | 82 | 172 | 1.0 | 1.0 | 0.00 | 0.00 | 0.00 | 77 | 1006.6 |
| 20260506010338 | 83 | 203 | 3.0 | 3.0 | 0.00 | 0.00 | 0.00 | 76 | 1006.4 |
| 20260506005834 | 83 | 150 | 2.0 | 3.0 | 0.00 | 0.00 | 0.00 | 76 | 1006.4 |
| 20260506005331 | 83 | 218 | 0.0 | 1.0 | 0.00 | 0.00 | 0.00 | 76 | 1006.3 |
| 20260506004827 | 83 | 167 | 2.0 | 3.0 | 0.00 | 0.00 | 0.00 | 76 | 1006.3 |
| 20260506004325 | 83 | 222 | 0.0 | 2.0 | 0.00 | 0.00 | 0.00 | 76 | 1006.2 |
| 20260506003821 | 83 | 196 | 1.0 | 2.0 | 0.00 | 0.00 | 0.00 | 76 | 1006.3 |
| 20260506003317 | 84 | 170 | 0.0 | 2.0 | 0.00 | 0.00 | 0.00 | 76 | 1006.5 |
| 20260506002814 | 84 | 206 | 1.0 | 2.0 | 0.00 | 0.00 | 0.00 | 76 | 1006.1 |
| 20260506002310 | 84 | 218 | 0.0 | 2.0 | 0.00 | 0.00 | 0.00 | 76 | 1006.2 |
| 20260506001806 | 84 | 192 | 2.0 | 3.0 | 0.00 | 0.00 | 0.00 | 75 | 1006.2 |
| 20260506001303 | 84 | 209 | 1.0 | 2.0 | 0.00 | 0.00 | 0.00 | 75 | 1006.3 |
| 20260506000800 | 84 | 198 | 1.0 | 3.0 | 0.00 | 0.00 | 0.00 | 74 | 1006.2 |
| 20260506000258 | 84 | 158 | 1.0 | 3.0 | 0.00 | 0.00 | 0.00 | 74 | 1006.0 |
| 20260505235755 | 84 | 208 | 3.0 | 5.0 | 0.00 | 0.00 | 0.00 | 74 | 1006.0 |
| 20260505235252 | 84 | 150 | 2.0 | 3.0 | 0.00 | 0.00 | 0.00 | 74 | 1006.0 |
| 20260505234749 | 84 | 256 | 0.0 | 2.0 | 0.00 | 0.00 | 0.00 | 75 | 1006.1 |
| 20260505234247 | 84 | 213 | 3.0 | 5.0 | 0.00 | 0.00 | 0.00 | 74 | 1006.0 |
| 20260505233743 | 84 | 187 | 3.0 | 3.0 | 0.00 | 0.00 | 0.00 | 74 | 1006.0 |
| 20260505233241 | 84 | 104 | 2.0 | 3.0 | 0.00 | 0.00 | 0.00 | 74 | 1006.0 |
| 20260505232738 | 84 | 240 | 2.0 | 2.0 | 0.00 | 0.00 | 0.00 | 73 | 1006.1 |
| 20260505232235 | 84 | 208 | 2.0 | 2.0 | 0.00 | 0.00 | 0.00 | 73 | 1006.0 |
| 20260505231732 | 84 | 201 | 3.0 | 5.0 | 0.00 | 0.00 | 0.00 | 73 | 1006.0 |
| 20260505231231 | 84 | 156 | 3.0 | 6.0 | 0.00 | 0.00 | 0.00 | 73 | 1005.9 |
| 20260505230729 | 85 | 227 | 0.0 | 1.0 | 0.00 | 0.00 | 0.00 | 73 | 1005.7 |
| 20260505230225 | 84 | 298 | 1.0 | 1.0 | 0.00 | 0.00 | 0.00 | 73 | 1005.9 |
| 20260505225722 | 85 | 161 | 2.0 | 5.0 | 0.00 | 0.00 | 0.00 | 73 | 1005.7 |
| 20260505225219 | 85 | 241 | 0.0 | 3.0 | 0.00 | 0.00 | 0.00 | 73 | 1005.9 |
| 20260505224714 | 85 | 219 | 2.0 | 3.0 | 0.00 | 0.00 | 0.00 | 73 | 1005.8 |
| 20260505224212 | 84 | 174 | 1.0 | 5.0 | 0.00 | 0.00 | 0.00 | 72 | 1005.7 |
| 20260505223709 | 85 | 218 | 5.0 | 9.0 | 0.00 | 0.00 | 0.00 | 71 | 1005.9 |
| 20260505223205 | 85 | 148 | 0.0 | 5.0 | 0.00 | 0.00 | 0.00 | 72 | 1006.1 |
| 20260505222701 | 84 | 181 | 2.0 | 7.0 | 0.00 | 0.00 | 0.00 | 71 | 1005.9 |
| 20260505222157 | 85 | 158 | 3.0 | 6.0 | 0.00 | 0.00 | 0.00 | 72 | 1005.8 |
| 20260505221655 | 85 | 114 | 3.0 | 5.0 | 0.00 | 0.00 | 0.00 | 72 | 1005.9 |
| 20260505221151 | 85 | 203 | 3.0 | 8.0 | 0.00 | 0.00 | 0.00 | 72 | 1005.6 |
| 20260505220649 | 85 | 214 | 1.0 | 6.0 | 0.00 | 0.00 | 0.00 | 71 | 1006.0 |
| 20260505220146 | 85 | 175 | 2.0 | 2.0 | 0.00 | 0.00 | 0.00 | 71 | 1005.9 |
| 20260505215644 | 85 | 197 | 3.0 | 3.0 | 0.00 | 0.00 | 0.00 | 72 | 1006.2 |
| 20260505215142 | 84 | 122 | 3.0 | 3.0 | 0.00 | 0.00 | 0.00 | 72 | 1006.4 |
| 20260505214639 | 84 | 232 | 2.0 | 3.0 | 0.00 | 0.00 | 0.00 | 72 | 1006.5 |
| 20260505214136 | 85 | 192 | 5.0 | 6.0 | 0.00 | 0.00 | 0.00 | 71 | 1006.3 |
| 20260505213634 | 86 | 197 | 2.0 | 2.0 | 0.00 | 0.00 | 0.00 | 69 | 1006.4 |
| 20260505213130 | 87 | 199 | 2.0 | 5.0 | 0.00 | 0.00 | 0.00 | 69 | 1006.6 |
| 20260505212626 | 87 | 233 | 1.0 | 3.0 | 0.00 | 0.00 | 0.00 | 68 | 1006.4 |
| 20260505212124 | 86 | 262 | 2.0 | 2.0 | 0.00 | 0.00 | 0.00 | 69 | 1006.5 |
| 20260505211621 | 86 | 148 | 5.0 | 5.0 | 0.00 | 0.00 | 0.00 | 69 | 1006.3 |
| 20260505211118 | 86 | 200 | 2.0 | 2.0 | 0.00 | 0.00 | 0.00 | 70 | 1006.4 |
| 20260505210615 | 86 | 217 | 3.0 | 5.0 | 0.00 | 0.00 | 0.00 | 70 | 1006.5 |
| 20260505210112 | 85 | 269 | 2.0 | 2.0 | 0.00 | 0.00 | 0.00 | 71 | 1006.6 |
| 20260505205609 | 84 | 267 | 2.0 | 2.0 | 0.00 | 0.00 | 0.00 | 71 | 1006.6 |
| 20260505205107 | 84 | 267 | 2.0 | 2.0 | 0.00 | 0.00 | 0.00 | 71 | 1006.8 |
| 20260505204604 | 84 | 228 | 1.0 | 1.0 | 0.00 | 0.00 | 0.00 | 72 | 1006.9 |
| 20260505204101 | 84 | 261 | 1.0 | 2.0 | 0.00 | 0.00 | 0.00 | 72 | 1007.0 |
| 20260505203557 | 84 | 242 | 0.0 | 1.0 | 0.00 | 0.00 | 0.00 | 73 | 1007.3 |
| 20260505203055 | 83 | 133 | 1.0 | 5.0 | 0.00 | 0.00 | 0.00 | 74 | 1007.3 |
| 20260505202550 | 83 | 310 | 1.0 | 3.0 | 0.00 | 0.00 | 0.00 | 74 | 1007.8 |
| 20260505202047 | 83 | 178 | 3.0 | 3.0 | 0.00 | 0.00 | 0.00 | 74 | 1007.5 |
| 20260505201544 | 83 | 272 | 1.0 | 3.0 | 0.00 | 0.00 | 0.00 | 75 | 1007.9 |
| 20260505201042 | 83 | 215 | 1.0 | 5.0 | 0.00 | 0.00 | 0.00 | 75 | 1007.5 |
| 20260505200539 | 83 | 266 | 1.0 | 1.0 | 0.00 | 0.00 | 0.00 | 74 | 1007.9 |
| 20260505200036 | 82 | 251 | 1.0 | 2.0 | 0.00 | 0.00 | 0.00 | 75 | 1007.8 |
| 20260505195532 | 82 | 250 | 1.0 | 2.0 | 0.00 | 0.00 | 0.00 | 75 | 1008.1 |
| 20260505195030 | 82 | 219 | 2.0 | 3.0 | 0.00 | 0.00 | 0.00 | 76 | 1007.9 |
| 20260505194526 | 83 | 209 | 2.0 | 5.0 | 0.00 | 0.00 | 0.00 | 75 | 1008.0 |
| 20260505194022 | 83 | 238 | 1.0 | 5.0 | 0.00 | 0.00 | 0.00 | 75 | 1008.1 |
| 20260505193519 | 82 | 265 | 1.0 | 2.0 | 0.00 | 0.00 | 0.00 | 76 | 1008.1 |
| 20260505193016 | 83 | 179 | 5.0 | 9.0 | 0.00 | 0.00 | 0.00 | 75 | 1007.9 |
| 20260505192515 | 82 | 336 | 0.0 | 1.0 | 0.00 | 0.00 | 0.00 | 76 | 1008.0 |
| 20260505192012 | 82 | 249 | 2.0 | 3.0 | 0.00 | 0.00 | 0.00 | 76 | 1008.1 |
| 20260505191510 | 82 | 281 | 1.0 | 2.0 | 0.00 | 0.00 | 0.00 | 76 | 1008.2 |
| 20260505191008 | 82 | 250 | 2.0 | 3.0 | 0.00 | 0.00 | 0.00 | 76 | 1007.9 |
| 20260505190502 | 82 | 231 | 1.0 | 2.0 | 0.00 | 0.00 | 0.00 | 77 | 1008.4 |
| 20260505185958 | 82 | 193 | 3.0 | 5.0 | 0.00 | 0.00 | 0.00 | 76 | 1008.2 |
| 20260505185456 | 81 | 323 | 1.0 | 1.0 | 0.00 | 0.00 | 0.00 | 78 | 1008.3 |
| 20260505184951 | 81 | 254 | 1.0 | 1.0 | 0.00 | 0.00 | 0.00 | 77 | 1008.6 |
| 20260505184449 | 81 | 222 | 1.0 | 2.0 | 0.00 | 0.00 | 0.00 | 78 | 1008.7 |
| 20260505183945 | 80 | 168 | 2.0 | 3.0 | 0.00 | 0.00 | 0.00 | 80 | 1008.8 |
| 20260505183442 | 80 | 175 | 4.0 | 5.0 | 0.00 | 0.00 | 0.00 | 79 | 1008.8 |
| 20260505182939 | 80 | 245 | 0.0 | 1.0 | 0.00 | 0.00 | 0.00 | 79 | 1008.8 |
| 20260505182436 | 80 | 260 | 1.0 | 3.0 | 0.00 | 0.00 | 0.00 | 78 | 1008.8 |
| 20260505181932 | 80 | 244 | 0.0 | 2.0 | 0.00 | 0.00 | 0.00 | 79 | 1008.9 |
| 20260505181430 | 80 | 274 | 1.0 | 3.0 | 0.00 | 0.00 | 0.00 | 80 | 1009.0 |
| 20260505180926 | 80 | 242 | 0.0 | 1.0 | 0.00 | 0.00 | 0.00 | 80 | 1009.0 |
| 20260505180423 | 79 | 255 | 1.0 | 2.0 | 0.00 | 0.00 | 0.00 | 80 | 1009.0 |
| 20260505175919 | 79 | 304 | 1.0 | 2.0 | 0.00 | 0.00 | 0.00 | 81 | 1009.1 |
| 20260505175416 | 79 | 257 | 0.0 | 0.0 | 0.00 | 0.00 | 0.00 | 82 | 1009.2 |
| 20260505174912 | 78 | 296 | 1.0 | 2.0 | 0.00 | 0.00 | 0.00 | 82 | 1009.2 |
| 20260505174410 | 78 | 280 | 0.0 | 1.0 | 0.00 | 0.00 | 0.00 | 83 | 1009.2 |
| 20260505173906 | 78 | 282 | 0.0 | 1.0 | 0.00 | 0.00 | 0.00 | 83 | 1009.1 |
| 20260505173402 | 78 | 276 | 1.0 | 2.0 | 0.00 | 0.00 | 0.00 | 83 | 1009.3 |
| 20260505172859 | 77 | 289 | 1.0 | 2.0 | 0.00 | 0.00 | 0.00 | 84 | 1009.5 |
| 20260505172357 | 77 | 256 | 1.0 | 1.0 | 0.00 | 0.00 | 0.00 | 84 | 1009.4 |
| 20260505171856 | 77 | 282 | 1.0 | 2.0 | 0.00 | 0.00 | 0.00 | 84 | 1009.4 |
| 20260505171354 | 77 | 282 | 1.0 | 2.0 | 0.00 | 0.00 | 0.00 | 84 | 1009.6 |
| 20260505170850 | 77 | 207 | 3.0 | 3.0 | 0.00 | 0.00 | 0.00 | 84 | 1009.6 |
| 20260505170347 | 77 | 314 | 0.0 | 2.0 | 0.00 | 0.00 | 0.00 | 84 | 1009.5 |
| 20260505165842 | 77 | 262 | 0.0 | 1.0 | 0.00 | 0.00 | 0.00 | 84 | 1009.6 |
| 20260505165338 | 77 | 270 | 0.0 | 2.0 | 0.00 | 0.00 | 0.00 | 84 | 1009.6 |
| 20260505164834 | 77 | 233 | 0.0 | 1.0 | 0.00 | 0.00 | 0.00 | 84 | 1009.5 |
| 20260505164331 | 77 | 132 | 1.0 | 2.0 | 0.00 | 0.00 | 0.00 | 84 | 1009.5 |
| 20260505163829 | 77 | 249 | 0.0 | 0.0 | 0.00 | 0.00 | 0.00 | 84 | 1009.5 |
| 20260505163328 | 76 | 226 | 2.0 | 3.0 | 0.00 | 0.00 | 0.00 | 85 | 1009.4 |
| 20260505162826 | 76 | 258 | 1.0 | 2.0 | 0.00 | 0.00 | 0.00 | 87 | 1009.5 |
| 20260505162321 | 75 | 269 | 0.0 | 2.0 | 0.00 | 0.00 | 0.00 | 88 | 1009.5 |
| 20260505161819 | 75 | 251 | 0.0 | 1.0 | 0.00 | 0.00 | 0.00 | 88 | 1009.8 |
| 20260505161316 | 75 | 277 | 1.0 | 1.0 | 0.00 | 0.00 | 0.00 | 88 | 1009.5 |
| 20260505160813 | 75 | 287 | 0.0 | 0.0 | 0.00 | 0.00 | 0.00 | 88 | 1009.6 |
| 20260505160311 | 74 | 278 | 0.0 | 1.0 | 0.00 | 0.00 | 0.00 | 88 | 1009.5 |
| 20260505153250 | 73 | 248 | 1.0 | 1.0 | 0.00 | 0.00 | 0.00 | 90 | 1009.7 |
| 20260505152747 | 73 | 288 | 1.0 | 3.0 | 0.00 | 0.00 | 0.00 | 90 | 1009.9 |
| 20260505152244 | 73 | 187 | 2.0 | 2.0 | 0.00 | 0.00 | 0.00 | 90 | 1009.5 |
| 20260505151743 | 73 | 250 | 1.0 | 1.0 | 0.00 | 0.00 | 0.00 | 90 | 1009.4 |
| 20260505151241 | 73 | 273 | 2.0 | 2.0 | 0.00 | 0.00 | 0.00 | 91 | 1009.3 |
| 20260505150738 | 73 | 235 | 0.0 | 2.0 | 0.00 | 0.00 | 0.00 | 91 | 1009.5 |
| 20260505150236 | 73 | 286 | 0.0 | 2.0 | 0.00 | 0.00 | 0.00 | 91 | 1009.4 |
| 20260505140205 | 72 | 242 | 1.0 | 3.0 | 0.00 | 0.00 | 0.00 | 92 | 1009.0 |
| 20260505130129 | 72 | 260 | 0.0 | 2.0 | 0.00 | 0.00 | 0.00 | 92 | 1008.4 |
| 20260505124619 | 72 | 204 | 0.0 | 1.0 | 0.00 | 0.00 | 0.00 | 93 | 1008.2 |
| 20260505124115 | 71 | 210 | 1.0 | 2.0 | 0.00 | 0.00 | 0.00 | 93 | 1008.2 |
| 20260505123611 | 71 | 288 | 1.0 | 2.0 | 0.00 | 0.00 | 0.00 | 93 | 1008.2 |
| 20260505123108 | 71 | 254 | 0.0 | 2.0 | 0.00 | 0.00 | 0.00 | 93 | 1008.3 |
| 20260505122605 | 71 | 336 | 0.0 | 1.0 | 0.00 | 0.00 | 0.00 | 93 | 1008.2 |
| 20260505122102 | 71 | 248 | 0.0 | 5.0 | 0.00 | 0.00 | 0.00 | 93 | 1008.1 |
| 20260505121558 | 71 | 211 | 0.0 | 5.0 | 0.00 | 0.00 | 0.00 | 93 | 1007.8 |
| 20260505121055 | 71 | 242 | 1.0 | 2.0 | 0.00 | 0.00 | 0.00 | 93 | 1008.1 |
| 20260505120551 | 71 | 201 | 3.0 | 5.0 | 0.00 | 0.00 | 0.00 | 93 | 1008.2 |
| 20260505120047 | 71 | 240 | 1.0 | 2.0 | 0.00 | 0.00 | 0.00 | 92 | 1007.9 |
| 20260505115542 | 71 | 259 | 0.0 | 2.0 | 0.00 | 0.00 | 0.00 | 92 | 1008.0 |
| 20260505115040 | 71 | 287 | 0.0 | 5.0 | 0.00 | 0.00 | 0.00 | 92 | 1007.8 |
| 20260505114536 | 71 | 298 | 0.0 | 2.0 | 0.00 | 0.00 | 0.00 | 92 | 1007.9 |
| 20260505114033 | 71 | 272 | 0.0 | 1.0 | 0.00 | 0.00 | 0.00 | 92 | 1007.8 |
| 20260505113529 | 71 | 167 | 2.0 | 6.0 | 0.00 | 0.00 | 0.00 | 92 | 1007.8 |
| 20260505113026 | 71 | 236 | 0.0 | 5.0 | 0.00 | 0.00 | 0.00 | 91 | 1007.9 |
| 20260505112522 | 71 | 270 | 0.0 | 3.0 | 0.00 | 0.00 | 0.00 | 91 | 1007.9 |
| 20260505112021 | 71 | 209 | 5.0 | 6.0 | 0.00 | 0.00 | 0.00 | 91 | 1008.0 |
| 20260505111520 | 71 | 272 | 1.0 | 5.0 | 0.00 | 0.00 | 0.00 | 91 | 1008.0 |
| 20260505111016 | 71 | 296 | 1.0 | 5.0 | 0.00 | 0.00 | 0.00 | 91 | 1008.0 |
| 20260505110513 | 71 | 271 | 2.0 | 2.0 | 0.00 | 0.00 | 0.00 | 91 | 1008.1 |
| 20260505101945 | 71 | 268 | 0.0 | 2.0 | 0.00 | 0.00 | 0.00 | 91 | 1008.0 |
| 20260505101443 | 71 | 211 | 0.0 | 6.0 | 0.00 | 0.00 | 0.00 | 91 | 1008.2 |
| 20260505100940 | 71 | 227 | 0.0 | 3.0 | 0.00 | 0.00 | 0.00 | 91 | 1008.2 |
| 20260505100437 | 71 | 218 | 1.0 | 1.0 | 0.00 | 0.00 | 0.00 | 91 | 1008.3 |
| 20260505095933 | 71 | 224 | 1.0 | 2.0 | 0.00 | 0.00 | 0.00 | 91 | 1008.1 |
| 20260505095430 | 71 | 211 | 0.0 | 2.0 | 0.00 | 0.00 | 0.00 | 91 | 1008.1 |
| 20260505094926 | 71 | 139 | 2.0 | 3.0 | 0.00 | 0.00 | 0.00 | 90 | 1008.0 |
| 20260505094423 | 71 | 221 | 1.0 | 3.0 | 0.00 | 0.00 | 0.00 | 90 | 1008.3 |
| 20260505093919 | 71 | 133 | 0.0 | 3.0 | 0.00 | 0.00 | 0.00 | 90 | 1008.1 |
| 20260505093416 | 71 | 202 | 1.0 | 3.0 | 0.00 | 0.00 | 0.00 | 90 | 1008.4 |
| 20260505092913 | 71 | 237 | 1.0 | 2.0 | 0.00 | 0.00 | 0.00 | 90 | 1008.3 |
| 20260505092411 | 71 | 251 | 0.0 | 2.0 | 0.00 | 0.00 | 0.00 | 90 | 1008.2 |
| 20260505091908 | 71 | 233 | 3.0 | 6.0 | 0.00 | 0.00 | 0.00 | 90 | 1008.1 |